Tracking 25689 objects as of 7-Jul-2022
HD Live streaming from Space Station
objects crossing your sky now

STARLINK-3754

Track STARLINK-3754 now!
10-day predictions
STARLINK-3754 is classified as:


NORAD ID: 52350
Int'l Code: 2022-045V
Perigee: 472.9 km
Apogee: 476.0 km
Inclination: 53.2 °
Period: 93.9 minutes
Semi major axis: 6845 km
RCS: Unknown
Launch date: April 29, 2022
Source: United States (US)
Launch site: AIR FORCE EASTERN TEST RANGE (AFETR)
aabbcc
Your satellite tracking list
Your tracking list is empty




NASA's NSSDC Master Catalog

Two Line Element Set (TLE):
1 52350U 22045V   22188.18177883 -.00206772  00000-0 -65940-2 0  9994
2 52350  53.2168 102.5701 0002293  32.1695 327.9447 15.32848258 13242
Source of the keplerian elements: AFSPC